SKY MUSTER (NBN1A)      
1 40940U 15054A   19260.88299182 -.00000283  00000-0  00000-0 0  9991
2 40940   0.0157 233.6700 0001901 306.2627 274.7155  1.00271407 14569
ARSAT 2                 
1 40941U 15054B   19261.39806237 -.00000229  00000-0  00000+0 0  9993
2 40941   0.0186 159.6333 0001667  19.6526 240.0551  1.00271989 14610
ARIANE 5 R/B            
1 40942U 15054C   19260.63336026  .00002305  00000-0  46668-3 0  9994
2 40942   6.3334 229.4158 7166112 350.6475   0.9177  2.43547272 34361
ARIANE 5 DEB [SYLDA]    
1 40943U 15054D   19261.24978906  .00474334  50086-6  49068-2 0  9998
2 40943   6.3616 241.7768 5831479 325.0309   7.7551  4.41071798 48837